• In Hungary
  • List of Countries
  • For 7 days
  • Water Temperature
  • Satellite Maps
  • Weather Map
  • News
  • Weather Widgets
  • user-avatar
    Login

    Hourly Weather Casares

    Today, 13 November, Tuesday

    Time Temperature Precipitation Wind Pressure Humidity
    00:00 +28°C° 0 mm 6 mps 756 mmHg 79%
    01:00 +28°C° 0 mm 6 mps 756 mmHg 80%
    02:00 +27°C° 0 mm 6 mps 756 mmHg 82%
    03:00 +27°C° 0 mm 6 mps 756 mmHg 83%
    04:00 +27°C° 0 mm 6 mps 756 mmHg 84%
    05:00 +27°C° 0 mm 5 mps 756 mmHg 85%
    06:00 +27°C° 0 mm 5 mps 756 mmHg 86%
    07:00 +28°C° 0 mm 6 mps 757 mmHg 81%
    08:00 +29°C° 0 mm 6 mps 757 mmHg 76%
    09:00 +32°C° 0 mm 6 mps 757 mmHg 71%
    10:00 +33°C° 0 mm 6 mps 757 mmHg 68%
    11:00 +33°C° 0 mm 5 mps 757 mmHg 65%
    12:00 +34°C° 0 mm 5 mps 756 mmHg 62%
    13:00 +34°C° 0 mm 5 mps 756 mmHg 63%
    14:00 +34°C° 0 mm 5 mps 755 mmHg 64%
    15:00 +34°C° 0 mm 4 mps 754 mmHg 65%
    16:00 +33°C° 0.2 mm 4 mps 755 mmHg 70%
    17:00 +30°C° 0.2 mm 4 mps 755 mmHg 75%
    18:00 +29°C° 0.2 mm 4 mps 755 mmHg 80%
    19:00 +29°C° 0 mm 4 mps 756 mmHg 80%
    20:00 +29°C° 0 mm 5 mps 756 mmHg 79%
    21:00 +28°C° 0 mm 5 mps 757 mmHg 79%
    22:00 +28°C° 0 mm 6 mps 757 mmHg 79%
    23:00 +28°C° 0 mm 6 mps 757 mmHg 80%

    Tomorrow, 14 November, Wednesday

    Time Temperature Precipitation Wind Pressure Humidity
    00:00 +28°C° 0 mm 6 mps 757 mmHg 81%
    01:00 +27°C° 0 mm 6 mps 756 mmHg 82%
    02:00 +27°C° 0 mm 6 mps 756 mmHg 83%
    03:00 +27°C° 0 mm 5 mps 756 mmHg 84%
    04:00 +27°C° 0 mm 5 mps 756 mmHg 84%
    05:00 +27°C° 0 mm 5 mps 756 mmHg 84%
    06:00 +27°C° 0 mm 5 mps 756 mmHg 84%
    07:00 +28°C° 0 mm 6 mps 757 mmHg 79%
    08:00 +30°C° 0 mm 6 mps 757 mmHg 74%
    09:00 +32°C° 0 mm 6 mps 758 mmHg 69%
    10:00 +33°C° 0 mm 6 mps 757 mmHg 66%
    11:00 +34°C° 0 mm 6 mps 757 mmHg 63%
    12:00 +35°C° 0 mm 6 mps 756 mmHg 60%
    13:00 +34°C° 0 mm 5 mps 755 mmHg 62%
    14:00 +34°C° 0 mm 5 mps 755 mmHg 65%
    15:00 +33°C° 0 mm 5 mps 754 mmHg 67%
    16:00 +32°C° 0.1 mm 5 mps 754 mmHg 70%
    17:00 +30°C° 0.1 mm 5 mps 754 mmHg 74%
    18:00 +29°C° 0.1 mm 5 mps 755 mmHg 77%
    19:00 +29°C° 0 mm 6 mps 755 mmHg 77%
    20:00 +29°C° 0 mm 6 mps 756 mmHg 76%
    21:00 +29°C° 0 mm 7 mps 757 mmHg 76%
    22:00 +28°C° 0 mm 7 mps 757 mmHg 76%
    23:00 +28°C° 0 mm 7 mps 756 mmHg 75%

    Day after tomorrow, 15 November, Thursday

    Time Temperature Precipitation Wind Pressure Humidity
    00:00 +28°C° 0 mm 7 mps 756 mmHg 75%
    01:00 +28°C° 0 mm 7 mps 756 mmHg 75%
    02:00 +28°C° 0 mm 7 mps 756 mmHg 75%
    03:00 +28°C° 0 mm 7 mps 755 mmHg 74%
    04:00 +27°C° 0 mm 6 mps 756 mmHg 74%
    05:00 +27°C° 0 mm 6 mps 756 mmHg 75%
    06:00 +27°C° 0 mm 6 mps 756 mmHg 75%
    07:00 +28°C° 0 mm 6 mps 757 mmHg 70%
    08:00 +30°C° 0 mm 6 mps 757 mmHg 66%
    09:00 +32°C° 0 mm 6 mps 758 mmHg 61%
    10:00 +33°C° 0 mm 6 mps 757 mmHg 58%
    11:00 +34°C° 0 mm 6 mps 756 mmHg 56%
    12:00 +35°C° 0 mm 6 mps 756 mmHg 53%
    13:00 +35°C° 0 mm 6 mps 755 mmHg 54%
    14:00 +35°C° 0 mm 6 mps 754 mmHg 56%
    15:00 +35°C° 0 mm 6 mps 754 mmHg 58%
    16:00 +33°C° 0 mm 6 mps 754 mmHg 62%
    17:00 +32°C° 0 mm 6 mps 754 mmHg 66%
    18:00 +30°C° 0 mm 6 mps 755 mmHg 71%
    19:00 +29°C° 0 mm 6 mps 756 mmHg 72%
    20:00 +29°C° 0 mm 6 mps 756 mmHg 73%
    21:00 +29°C° 0 mm 6 mps 757 mmHg 74%
    22:00 +29°C° 0 mm 6 mps 757 mmHg 74%
    23:00 +29°C° 0 mm 7 mps 757 mmHg 74%

    16 November, Friday

    Time Temperature Precipitation Wind Pressure Humidity
    00:00 +28°C° 0 mm 7 mps 756 mmHg 74%
    01:00 +28°C° 0 mm 6 mps 756 mmHg 74%
    02:00 +27°C° 0 mm 6 mps 755 mmHg 75%
    03:00 +27°C° 0 mm 6 mps 755 mmHg 76%
    04:00 +27°C° 0 mm 6 mps 755 mmHg 77%
    05:00 +27°C° 0 mm 6 mps 756 mmHg 77%
    06:00 +26°C° 0 mm 6 mps 756 mmHg 78%
    07:00 +28°C° 0 mm 6 mps 756 mmHg 73%
    08:00 +29°C° 0 mm 6 mps 757 mmHg 68%
    09:00 +32°C° 0 mm 7 mps 757 mmHg 63%
    10:00 +33°C° 0 mm 7 mps 757 mmHg 61%
    11:00 +34°C° 0 mm 7 mps 756 mmHg 58%
    12:00 +35°C° 0 mm 7 mps 756 mmHg 56%
    13:00 +35°C° 0 mm 6 mps 755 mmHg 57%
    14:00 +34°C° 0 mm 6 mps 754 mmHg 59%
    15:00 +34°C° 0 mm 5 mps 754 mmHg 60%
    16:00 +33°C° 0 mm 5 mps 754 mmHg 65%
    17:00 +32°C° 0 mm 5 mps 755 mmHg 70%
    18:00 +29°C° 0 mm 5 mps 755 mmHg 75%
    19:00 +29°C° 0 mm 5 mps 756 mmHg 75%
    20:00 +29°C° 0 mm 5 mps 756 mmHg 76%
    21:00 +29°C° 0 mm 5 mps 757 mmHg 76%
    22:00 +28°C° 0 mm 6 mps 757 mmHg 76%
    23:00 +28°C° 0 mm 6 mps 756 mmHg 76%

    17 November, Saturday

    Time Temperature Precipitation Wind Pressure Humidity
    00:00 +28°C° 0 mm 6 mps 756 mmHg 76%
    01:00 +27°C° 0 mm 6 mps 756 mmHg 76%
    02:00 +27°C° 0 mm 6 mps 756 mmHg 77%
    03:00 +27°C° 0 mm 6 mps 755 mmHg 78%
    04:00 +27°C° 0 mm 6 mps 756 mmHg 79%
    05:00 +26°C° 0 mm 6 mps 756 mmHg 79%
    06:00 +26°C° 0 mm 6 mps 756 mmHg 80%
    07:00 +28°C° 0 mm 7 mps 757 mmHg 75%
    08:00 +29°C° 0 mm 7 mps 757 mmHg 71%
    09:00 +32°C° 0 mm 7 mps 758 mmHg 66%
    10:00 +33°C° 0 mm 7 mps 757 mmHg 63%
    11:00 +34°C° 0 mm 7 mps 756 mmHg 60%
    12:00 +35°C° 0 mm 6 mps 756 mmHg 56%
    13:00 +35°C° 0 mm 6 mps 755 mmHg 57%
    14:00 +35°C° 0 mm 6 mps 754 mmHg 58%
    15:00 +35°C° 0 mm 5 mps 754 mmHg 58%
    16:00 +33°C° 0 mm 5 mps 754 mmHg 63%
    17:00 +32°C° 0 mm 5 mps 755 mmHg 67%
    18:00 +30°C° 0 mm 5 mps 755 mmHg 71%
    19:00 +30°C° 0 mm 5 mps 755 mmHg 72%
    20:00 +29°C° 0 mm 5 mps 756 mmHg 73%
    21:00 +29°C° 0 mm 6 mps 756 mmHg 75%
    22:00 +29°C° 0 mm 6 mps 756 mmHg 75%
    23:00 +29°C° 0 mm 6 mps 756 mmHg 76%

    18 November, Sunday

    Time Temperature Precipitation Wind Pressure Humidity
    00:00 +28°C° 0 mm 6 mps 756 mmHg 77%
    01:00 +28°C° 0 mm 6 mps 755 mmHg 78%
    02:00 +28°C° 0 mm 6 mps 755 mmHg 79%
    03:00 +27°C° 0 mm 6 mps 755 mmHg 80%
    04:00 +27°C° 0 mm 6 mps 756 mmHg 80%
    05:00 +27°C° 0 mm 6 mps 756 mmHg 79%
    06:00 +27°C° 0 mm 6 mps 756 mmHg 78%
    07:00 +28°C° 0 mm 6 mps 757 mmHg 74%
    08:00 +30°C° 0 mm 7 mps 757 mmHg 70%
    09:00 +32°C° 0 mm 7 mps 757 mmHg 65%
    10:00 +33°C° 0 mm 7 mps 757 mmHg 63%
    11:00 +34°C° 0 mm 7 mps 756 mmHg 61%
    12:00 +35°C° 0 mm 7 mps 755 mmHg 58%
    13:00 +35°C° 0 mm 7 mps 755 mmHg 59%
    14:00 +35°C° 0 mm 6 mps 754 mmHg 60%
    15:00 +35°C° 0 mm 6 mps 754 mmHg 60%
    16:00 +33°C° 0 mm 6 mps 754 mmHg 64%
    17:00 +32°C° 0 mm 6 mps 754 mmHg 67%
    18:00 +30°C° 0 mm 5 mps 755 mmHg 71%
    19:00 +30°C° 0 mm 6 mps 755 mmHg 72%
    20:00 +29°C° 0 mm 6 mps 756 mmHg 72%
    21:00 +29°C° 0 mm 7 mps 757 mmHg 73%
    22:00 +29°C° 0 mm 7 mps 756 mmHg 73%
    23:00 +29°C° 0 mm 7 mps 756 mmHg 74%
    Show more